Copper Mountain, CO

9:36 PM MDT on June 22, 2017 (GMT -0600)
Copper Mountain

Weather History for KCCU - October, 2012

Change the Weather History Date:

Saturday, October 6, 2012

  Actual Average Record
Temperature  
Mean Temperature 27 °F -  
Max Temperature 33 °F - 54 °F (2015)
Min Temperature 21 °F - 17 °F (2008)
Degree Days  
Heating Degree Days 38    
Month to date heating degree days  
Cooling Degree Days 0    
Month to date cooling degree days  
Moisture  
Dew Point -1 °F    
Average Humidity 29    
Maximum Humidity 46    
Minimum Humidity 18    
Precipitation  
Precipitation 0.00 in - 0.19 in (2015)
Sea Level Pressure  
Sea Level Pressure 30.21 in    
Wind  
Wind Speed 22 mph (West)    
Max Wind Speed 31 mph    
Max Gust Speed 38 mph    
Visibility 9 miles    
Events Snow    
T = Trace of Precipitation, MM = Missing Value Source: NWS Daily Summary

Daily Weather History Graph

Daily Weather History Graph

Search for Another Location

Airport or City:

Trip Planner

Search our weather history database for the weather conditions in past years. The results will help you decide how hot, cold, wet, or windy it might be!

Date:

Astronomy

Oct. 06, 2012 Rise Set
Actual Time 7:06 AM MDT 6:38 PM MDT
Civil Twilight 6:39 AM MDT 7:05 PM MDT
Nautical Twilight 6:08 AM MDT 7:36 PM MDT
Astronomical Twilight 5:36 AM MDT 8:07 PM MDT
Moon 10:57 PM MDT (10/6) 1:01 PM MDT (10/6)
Length of Visible Light 12h 25m
Length of Day
11h 32m
Waning Gibbous, 65% of the Moon is Illuminated
Oct 6
Waning Gibbous
Oct 8
Last Quarter
Oct 15
New
Oct 21
First Quarter
Oct 29
Full

Hourly Weather History & Observations

Time (MDT) Temp. Windchill Dew Point Humidity Pressure Visibility Wind Dir Wind Speed Gust Speed Precip Events Conditions
12:15 AM 33.8 °F 19.9 °F 5.0 °F 30% 30.20 in 10.0 mi West 31.1 mph 38.0 mph N/A   Overcast
12:35 AM 33.8 °F 20.8 °F 5.0 °F 30% 30.20 in 10.0 mi West 26.5 mph 36.8 mph N/A   Scattered Clouds
12:55 AM 33.8 °F 21.0 °F 3.2 °F 28% 30.20 in 10.0 mi West 25.3 mph 34.5 mph N/A   Scattered Clouds
1:15 AM 33.8 °F 21.6 °F 3.2 °F 28% 30.20 in 10.0 mi West 23.0 mph 32.2 mph N/A   Mostly Cloudy
1:35 AM 33.8 °F 22.5 °F 5.0 °F 30% 30.21 in 10.0 mi West 19.6 mph 31.1 mph N/A   Overcast
1:55 AM 32.0 °F 19.5 °F 3.2 °F 30% 30.20 in 10.0 mi West 21.9 mph 29.9 mph N/A   Overcast
2:15 AM 32.0 °F 21.2 °F 5.0 °F 32% 30.20 in 10.0 mi West 16.1 mph 27.6 mph N/A   Overcast
2:35 AM 32.0 °F 19.2 °F 5.0 °F 32% 30.20 in 10.0 mi West 23.0 mph 27.6 mph N/A   Overcast
2:55 AM 30.2 °F 16.8 °F 3.2 °F 32% 30.19 in 10.0 mi West 23.0 mph 29.9 mph N/A   Overcast
3:15 AM 30.2 °F 18.9 °F 5.0 °F 34% 30.19 in 10.0 mi West 16.1 mph 26.5 mph N/A   Overcast
3:35 AM 30.2 °F 17.4 °F 5.0 °F 34% 30.18 in 10.0 mi West 20.7 mph 27.6 mph N/A   Scattered Clouds
3:55 AM 28.4 °F 15.4 °F 3.2 °F 34% 30.18 in 10.0 mi West 19.6 mph 24.2 mph N/A   Clear
4:15 AM 28.4 °F 14.4 °F 3.2 °F 34% 30.18 in 10.0 mi West 23.0 mph - N/A   Clear
4:35 AM 28.4 °F - 5.0 °F 37% 30.17 in 10.0 mi North - - N/A   Clear
4:55 AM 26.6 °F - 3.2 °F 37% 30.18 in 10.0 mi North - - N/A   Clear
5:15 AM 24.8 °F - 5.0 °F 43% 30.19 in 10.0 mi North - - N/A   Clear
5:35 AM 24.8 °F 12.4 °F 5.0 °F 43% 30.19 in 10.0 mi West 15.0 mph - N/A   Clear
5:55 AM 24.8 °F 11.1 °F 5.0 °F 43% 30.19 in 10.0 mi West 18.4 mph - N/A   Clear
6:15 AM 23.0 °F 9.6 °F 5.0 °F 46% 30.19 in 10.0 mi West 16.1 mph - N/A   Clear
6:35 AM 23.0 °F 8.3 °F 5.0 °F 46% 30.19 in 10.0 mi West 19.6 mph 23.0 mph N/A   Clear
6:55 AM 23.0 °F 7.6 °F 3.2 °F 43% 30.20 in 10.0 mi West 21.9 mph 29.9 mph N/A   Clear
7:15 AM 21.2 °F 5.6 °F -0.4 °F 39% 30.21 in 10.0 mi West 20.7 mph 31.1 mph N/A   Clear
7:35 AM 21.2 °F 4.9 °F -0.4 °F 39% 30.20 in 10.0 mi West 23.0 mph 27.6 mph N/A   Clear
7:55 AM 21.2 °F 6.0 °F -0.4 °F 39% 30.21 in 7.0 mi West 19.6 mph 23.0 mph N/A   Clear
8:15 AM 21.2 °F 6.8 °F -0.4 °F 39% 30.22 in 10.0 mi West 17.3 mph - N/A   Clear
8:35 AM 23.0 °F 10.6 °F 1.4 °F 39% 30.22 in 10.0 mi West 13.8 mph 18.4 mph N/A   Clear
8:55 AM 23.0 °F 8.3 °F 1.4 °F 39% 30.22 in 4.0 mi West 19.6 mph 23.0 mph N/A   Haze
9:15 AM 23.0 °F 9.6 °F 1.4 °F 39% 30.23 in 2.5 mi West 16.1 mph - N/A Snow Light Snow
9:35 AM 24.8 °F 9.0 °F -0.4 °F 34% 30.22 in 10.0 mi West 25.3 mph 31.1 mph N/A   Clear
9:55 AM 24.8 °F 9.6 °F -0.4 °F 34% 30.22 in 7.0 mi West 23.0 mph 28.8 mph N/A   Clear
10:15 AM 24.8 °F 8.7 °F -4.0 °F 28% 30.23 in 7.0 mi West 26.5 mph 34.5 mph N/A   Clear
10:35 AM 26.6 °F 10.6 °F -5.8 °F 24% 30.22 in 7.0 mi West 28.8 mph 35.7 mph N/A   Clear
10:55 AM 26.6 °F 13.1 °F -5.8 °F 24% 30.23 in 2.5 mi West 19.6 mph 31.1 mph N/A   Haze
11:15 AM 26.6 °F 10.8 °F -5.8 °F 24% 30.23 in 5.0 mi West 27.6 mph 34.5 mph N/A   Haze
11:35 AM 26.6 °F 12.4 °F -4.0 °F 26% 30.23 in 2.5 mi West 21.9 mph 29.9 mph N/A   Haze
11:55 AM 28.4 °F 13.3 °F -4.0 °F 25% 30.22 in 10.0 mi West 27.6 mph 38.0 mph N/A   Clear
12:15 PM 28.4 °F 15.4 °F -5.8 °F 23% 30.23 in 5.0 mi West 19.6 mph 31.1 mph N/A   Haze
12:35 PM 30.2 °F 15.7 °F -5.8 °F 21% 30.22 in 5.0 mi West 27.6 mph 34.5 mph N/A   Haze
12:55 PM 30.2 °F 15.4 °F -7.6 °F 19% 30.21 in 7.0 mi West 28.8 mph 35.7 mph N/A   Clear
1:15 PM 32.0 °F 17.9 °F -7.6 °F 18% 30.21 in 7.0 mi West 28.8 mph 33.4 mph N/A   Clear
1:35 PM 33.8 °F 22.2 °F -4.0 °F 20% 30.21 in 7.0 mi West 20.7 mph 28.8 mph N/A   Clear
1:55 PM 32.0 °F 18.9 °F -7.6 °F 18% 30.20 in 10.0 mi West 24.2 mph 29.9 mph N/A   Clear
2:15 PM 33.8 °F 21.0 °F -4.0 °F 20% 30.20 in 10.0 mi West 25.3 mph 32.2 mph N/A   Clear
2:35 PM 33.8 °F 21.6 °F -4.0 °F 20% 30.20 in 7.0 mi West 23.0 mph 28.8 mph N/A   Mostly Cloudy
2:55 PM 33.8 °F 23.2 °F -0.4 °F 23% 30.20 in 5.0 mi West 17.3 mph 32.2 mph N/A   Haze
3:15 PM 33.8 °F 21.9 °F -4.0 °F 20% 30.20 in 10.0 mi West 21.9 mph 28.8 mph N/A   Mostly Cloudy
3:35 PM 33.8 °F 22.2 °F -4.0 °F 20% 30.20 in 10.0 mi West 20.7 mph 29.9 mph N/A   Mostly Cloudy
3:55 PM 33.8 °F 23.5 °F -2.2 °F 22% 30.20 in 7.0 mi West 16.1 mph 24.2 mph N/A   Overcast
4:15 PM 33.8 °F 22.8 °F -0.4 °F 23% 30.20 in 5.0 mi West 18.4 mph - N/A   Haze
4:35 PM 33.8 °F 22.2 °F -4.0 °F 20% 30.20 in 10.0 mi West 20.7 mph 26.5 mph N/A   Overcast
5:15 PM 33.8 °F 23.5 °F -2.2 °F 22% 30.20 in 7.0 mi West 16.1 mph 21.9 mph N/A   Overcast
5:35 PM 32.0 °F 20.5 °F -5.8 °F 20% 30.20 in 10.0 mi West 18.4 mph 23.0 mph N/A   Overcast
5:55 PM 32.0 °F 20.5 °F -4.0 °F 21% 30.20 in 10.0 mi West 18.4 mph - N/A   Overcast
6:15 PM 32.0 °F 20.5 °F -4.0 °F 21% 30.20 in 10.0 mi West 18.4 mph - N/A   Overcast
6:35 PM 32.0 °F 20.8 °F -4.0 °F 21% 30.21 in 10.0 mi West 17.3 mph - N/A   Overcast
6:55 PM 30.2 °F 19.3 °F -4.0 °F 23% 30.21 in 10.0 mi West 15.0 mph - N/A   Overcast
7:15 PM 30.2 °F 18.9 °F -4.0 °F 23% 30.21 in 10.0 mi West 16.1 mph - N/A   Overcast
7:35 PM 30.2 °F 18.5 °F -4.0 °F 23% 30.21 in 10.0 mi West 17.3 mph - N/A   Overcast
7:55 PM 30.2 °F 19.3 °F -4.0 °F 23% 30.21 in 10.0 mi West 15.0 mph - N/A   Overcast
8:15 PM 28.4 °F 16.2 °F -4.0 °F 25% 30.21 in 10.0 mi West 17.3 mph - N/A   Overcast
8:35 PM 28.4 °F 15.8 °F -4.0 °F 25% 30.22 in 10.0 mi West 18.4 mph - N/A   Overcast
8:55 PM 28.4 °F 15.8 °F -0.4 °F 29% 30.22 in 10.0 mi West 18.4 mph - N/A   Mostly Cloudy
9:15 PM 26.6 °F - -2.2 °F 29% 30.22 in 10.0 mi North - - N/A   Scattered Clouds
9:35 PM 26.6 °F - -2.2 °F 29% 30.22 in 10.0 mi North - - N/A   Scattered Clouds
9:55 PM 24.8 °F 14.0 °F -0.4 °F 34% 30.22 in 10.0 mi West 11.5 mph 16.1 mph N/A   Scattered Clouds
10:15 PM 26.6 °F - -2.2 °F 29% 30.21 in 10.0 mi North - - N/A   Scattered Clouds
10:35 PM 26.6 °F 15.2 °F -4.0 °F 26% 30.21 in 10.0 mi West 13.8 mph - N/A   Overcast
10:55 PM 24.8 °F 19.1 °F -2.2 °F 31% 30.20 in 10.0 mi WSW 4.6 mph - N/A   Overcast
11:15 PM 26.6 °F 18.2 °F -5.8 °F 24% 30.20 in 10.0 mi WSW 8.1 mph - N/A   Overcast
11:35 PM 26.6 °F 17.5 °F -5.8 °F 24% 30.19 in 10.0 mi WSW 9.2 mph - N/A   Overcast
11:55 PM 26.6 °F 15.2 °F -7.6 °F 22% 30.19 in 10.0 mi West 13.8 mph 18.4 mph N/A   Overcast